Location: Newark
(58.8333°N, 23.5833°E)
Time: 01:52:47
(UTC+00:00)

A-11 Canister half - Pass Details

Date: 18 November 2019
Orbit: 1515 x 1685 km, 47.2° (Epoch: 08 December)

Event Time Altitude Azimuth Distance (km) Brightness Sun altitude
Rises 14:27:14 0° 170° (S) 4,889 11.9 -3.9°
Reaches altitude 10° 14:33:44 10° 140° (SE) 3,933 11.1 -4.7°
Maximum altitude 14:36:18 11° 125° (SE) 3,844 10.8 -4.9°
Drops below altitude 10° 14:38:51 10° 110° (ESE) 3,949 10.8 -5.2°
Enters shadow 14:44:00 - 85° (E) 4,666 10.9 -5.8°
Sets 14:45:24 0° 80° (E) 4,943 - -6.0°
